Location: Bremen
(53.0793°N, 8.8017°E)
Time: 16:16:43
(UTC+02:00)

SR - Pass Details

Date: 18 April 2024
Orbit: 579 x 859 km, 66.7° (Epoch: 26 May)

Event Time Altitude Azimuth Distance (km) Brightness Sun altitude
Exits shadow 05:16:32 11° 247° (WSW) 2,258 ? -9.2°
Maximum altitude 05:21:28 46° 320° (NW) 995 ? -8.5°
Drops below altitude 10° 05:26:16 10° 34° (NE) 2,182 ? -7.9°
Sets 05:28:37 0° 40° (NE) 3,056 ? -7.6°
